Regional Weather Roundup
Issued by NWS

Home | Current Version | Previous Version | Text Only | Print | Product List | Glossary On
Versions: 1 2 3 4 5 6 7 8 9 10 11 12 13 14 15 16 17 18 19 20 21 22 23 24 25 26 27 28 29 30 31 32 33 34 35 36 37 38 39 40 41 42 43 44 45 46 47 48 49 50
000
ASUS43 KMPX 011301
RWRMN
WEATHER ROUNDUP FOR MINNESOTA
NATIONAL WEATHER SERVICE TWIN CITIES/CHANHASSEN MN
800 AM CDT SUN MAY 01 2016


NOTE: "FAIR" INDICATES FEW OR NO CLOUDS BELOW 12,000 FEET WITH NO
SIGNIFICANT WEATHER AND/OR OBSTRUCTIONS TO VISIBILITY. N/A MEANS
CURRENT SKY AND/OR WEATHER CONDITIONS ARE NOT AVAILABLE.

MNZ060>063-068>070-011400-
   Twin Cities Metro

CITY           SKY/WX    TMP DP  RH WIND       PRES   REMARKS
TWIN CITIES    CLOUDY    43  34  70 N10       30.16R
ST PAUL        PTSUNNY   43  34  70 N9        30.18R
CRYSTAL        MOSUNNY   43  33  68 N13       30.17R
BLAINE         PTSUNNY   43  36  75 N10       30.17R
EDEN PRAIRIE   CLOUDY    43  32  65 N14       30.14R
SOUTH ST PAUL  CLOUDY    44  34  67 N12       30.16R
LAKE ELMO      FAIR      41  34  75 N10G16    30.17R
$$
MNZ001>005-007-008-013>017-022>024-027-028-011400-
   Northwest Minnesota

CITY           SKY/WX    TMP DP  RH WIND       PRES   REMARKS
BEMIDJI        SUNNY     39  32  76 CALM      30.29S
HALLOCK        SUNNY     45  28  53 CALM      30.32S
ROSEAU         SUNNY     39  34  81 CALM      30.31S
WARROAD        SUNNY     43  36  75 NE6       30.32S
THIEF RVR FALL SUNNY     45  28  53 CALM      30.32R
CROOKSTON      SUNNY     43  30  61 CALM      30.32R
FOSSTON        MOSUNNY   43  34  70 CALM      30.30S
DETROIT LAKES  SUNNY     43  32  65 NE8       30.29R
MOORHEAD       SUNNY     41  30  65 N5        30.31R
PARK RAPIDS    SUNNY     43  28  55 NE6       30.28R
MAHNOMEN       FAIR      37  32  82 CALM      30.29S
$$
MNZ006-009>011-018-025>026-011400-
   North Central Minnesota

CITY           SKY/WX    TMP DP  RH WIND       PRES   REMARKS
BAUDETTE       SUNNY     41  29  62 E6        30.31R
FLAG ISLAND    SUNNY     43  34  70 CALM      30.31S
INTL FALLS     SUNNY     41  30  65 NE5       30.31R
WASKISH        MOSUNNY   45  36  70 W7        30.30R
BIG FORK       SUNNY     41  30  65 NE3       30.29S
LONGVILLE      SUNNY     41  30  65 CALM      30.27R
GRAND RAPIDS   SUNNY     39  28  65 N6        30.28R
CRANE LAKE     SUNNY     36  30  80 CALM      30.32S
ORR            SUNNY     37  27  65 CALM      30.27S
COOK           SUNNY     37  30  75 CALM      30.29R
WALKER         FAIR      36  32  84 CALM      30.28S
$$
MNZ012-019>021-037-011400-
   Northeast Minnesota

CITY           SKY/WX    TMP DP  RH WIND       PRES   REMARKS
DULUTH         CLOUDY    38  30  73 NE7       30.24R
ELY            SUNNY     36  30  80 N3        30.27S
HIBBING        SUNNY     37  30  75 N5        30.27R
EVELETH        SUNNY     39  32  75 NE5       30.27S
DULUTH HARBOR  CLOUDY    41  36  81 NE15      30.27R
TWO HARBORS    SUNNY     45  36  70 NE9       30.24R
SILVER BAY     SUNNY     43  34  70 N7        30.24R
GRAND MARAIS     N/A     45  33  63 E7        30.26R
G MARAIS ARPRT SUNNY     37  30  75 N10       30.24S
$$
MNZ029>031-032-039>041-046>048-054>057-064-011400-
   West Central Minnesota

CITY           SKY/WX    TMP DP  RH WIND       PRES   REMARKS
FERGUS FALLS   SUNNY     43  30  61 NE10      30.26S
WHEATON        SUNNY     43  34  70 N8        30.28R
MORRIS         SUNNY     43  34  70 NE12      30.22S
ALEXANDRIA     SUNNY     40  29  64 NE9       30.25R
ELBOW LAKE     FAIR      40  31  70 E10       30.26R
WADENA         SUNNY     39  28  65 N7        30.26
GLENWOOD       SUNNY     39  32  75 NE16      30.22S
APPLETON       SUNNY     41  30  65 NE15      30.21S
BENSON         SUNNY     43  30  61 E8        30.22R
ORTONVILLE     SUNNY     39  30  70 NE12      30.23R
MADISON        SUNNY     39  30  70 N10       30.21R
WILLMAR        FAIR      41  34  75 NE15      30.20S
$$
MNZ033>034-036-042>043-049>051-058-059-011400-
   Central Minnesota

CITY           SKY/WX    TMP DP  RH WIND       PRES   REMARKS
ST CLOUD       SUNNY     41  33  73 NE13      30.21R
SAUK CENTRE    FAIR      40  32  74 NE15      30.22S
PAYNESVILLE    SUNNY     40  33  74 NE10      30.21R
AITKIN         SUNNY     41  28  60 N7        30.25R
PINE RIVER     SUNNY     39  30  70 N7        30.29S
BRAINERD       SUNNY     39  30  70 N8        30.26R
STAPLES        SUNNY     37  28  70 NE6       30.26R
LONG PRAIRIE   FAIR      36  30  80 N8        30.23R
LITTLE FALLS   MOSUNNY   37  30  75 N3        30.23S
LITCHFIELD     SUNNY     39  34  81 NE12      30.19S
BUFFALO        CLOUDY    40  32  75 N10       30.20R
MAPLE LAKE     MOSUNNY   38  34  83 N7        30.20R
HUTCHINSON     SUNNY     41  34  75 N15G23    30.18R
$$
MNZ037-044-045-052-053-011400-
   East Central Minnesota

CITY           SKY/WX    TMP DP  RH WIND       PRES   REMARKS
PRINCETON      CLOUDY    41  34  75 NE12G18   30.21R
MORA           SUNNY     39  30  70 NE12      30.23R
CAMBRIDGE      CLOUDY    43  32  65 N7G16     30.19R
RUSH CITY      PTSUNNY   39  33  81 N8        30.21R
MOOSE LAKE     MOSUNNY   39  30  70 NE9       30.23R
HINCKLEY       FAIR      41  32  70 NE13G18   30.22S
CLOQUET        CLOUDY    36  30  80 N3        30.25R
MCGREGOR       SUNNY     37  32  81 NE8       30.26R
$$
MNZ071>073-080-081-089-090-097-098-011400-
   Southwest Minnesota

CITY           SKY/WX    TMP DP  RH WIND       PRES   REMARKS
MONTEVIDEO     CLOUDY    39  30  70 E12       30.22R
GRANITE FALLS  CLOUDY    41  33  74 N9        30.20R
CANBY          SUNNY     41  35  77 N9        30.22R
MARSHALL       MOSUNNY   37  32  82 N9        30.18R
REDWOOD FALLS  MOSUNNY   42  31  64 NE8       30.17R
OLIVIA         MOSUNNY   39  32  75 NE18G24   30.17R
PIPESTONE      CLOUDY    37  34  87 NE12      30.14R
WINDOM         CLOUDY    39  36  87 N15       30.13R
WORTHINGTON    LGT RAIN  39  35  86 N15       30.13R
JACKSON        CLOUDY    41  36  81 N13       30.12R
TRACY          CLOUDY    39  34  84 N9        30.16S
SLAYTON        CLOUDY    37  35  91 N13       30.14S
$$
MNZ065>067-074>077-082>085-091>093-011400-
   South Central Minnesota

CITY           SKY/WX    TMP DP  RH WIND       PRES   REMARKS
MANKATO        CLOUDY    43  34  70 N15       30.13R
NEW ULM        MOSUNNY   39  36  87 NE12      30.15R
ST JAMES       CLOUDY    36  32  87 N14       30.14S
FAIRMONT       CLOUDY    41  34  75 N13       30.11R
GLENCOE        CLOUDY    41  36  80 N6        30.16R
FARIBAULT      CLOUDY    43  36  75 N10G16    30.13R
OWATONNA       CLOUDY    43  36  75 N9        30.11R
WASECA         CLOUDY    41  36  81 N15       30.12R
ALBERT LEA     CLOUDY    43  39  87 N9        30.09R
$$
MNZ078>079-086>088-094>096-011400-
   Southeast Minnesota

CITY           SKY/WX    TMP DP  RH WIND       PRES   REMARKS
ROCHESTER      LGT RAIN  43  40  89 NE15      30.09R
RED WING       CLOUDY    45  34  65 NE9       30.13R
STANTON        MOSUNNY   44  35  72 NE12G17   30.12R
DODGE CENTER   CLOUDY    41  41 100 NE10      30.10R
WINONA         CLOUDY    46  36  66 E7        30.12R
AUSTIN         CLOUDY    45  37  76 NE10      30.08R
PRESTON        CLOUDY    42  37  81 NE10      30.08R
$$
ABBREVIATIONS USED IN REMARKS
   TC - TEMPERATURES IN CELSIUS
  WCI - WIND CHILL INDEX
   HX - HEAT INDEX
  VSB - VISIBILITY
$$




USA.gov is the U.S. government's official web portal to all federal, state and local government web resources and services.